Weather in Gagarin

Russia / Smolensk Oblast     55°33′11″N   34°59′48″E
temp.,
°C
wind,
m/s
gust,
m/s
humid.,
%
clouds,
%
prec.,
mm/h
press.,
hPa
HPBL,
m
12 april, mon
mon1200:00+7sse33740 0.0 103140
03:00+6se33761 0.0 103234
06:00+5ese368086 0.0 103289
09:00+9ese51162100 0.0 1032495
12:00+12ese61042100 0.0 1030885
15:00+11ese6952100 0.0 1028649
18:00+11ese4871100 0.0 1027419
21:00+9ese41088100 0.0 1027261
13 april, tue
tue1300:00+8ese41193100 0.0 1025250
03:00+8ese3894100 0.0 1024161
06:00+7se3693100 0.0 1024114
09:00+10sse4878100 0.0 1023249
12:00+16s6859100 0.0 1023538
15:00+19s6748100 0.0 10221534
18:00+16sse476067 0.0 1021195
21:00+12se497291 0.0 1022134
14 april, wed
wed1400:00+10sse49748 0.0 1021142
03:00+8sse497986 0.0 1021147
06:00+9se478097 0.0 102097
09:00+13sse486744 0.0 1019384
12:00+17s6105493 0.0 10191249
15:00+17s575222 0.4 10181504
18:00+16sse3454100 0.2 101788
21:00+11se336269 0.2 101730
15 april, thu
thu1500:00+11sse3365100 0.0 101755
03:00+10w1184100 0.0 101720
06:00+10e2282100 0.0 101734
09:00+10s2490100 0.1 1017127
12:00+11sw2385100 0.0 1017194
15:00+15sw2363100 0.4 1016899
18:00+14nnw3475100 0.3 1016150
21:00+10nnw3590100 1.1 1016103
16 april, fri
fri1600:00+10nne3591100 0.1 1016113
03:00+9ne4994100 0.1 1016254
06:00+7ne5119580 0.0 1017358
09:00+8ne71187100 0.0 1018505
12:00+9ne71081100 0.0 1019740
15:00+8ne81280100 0.3 1021790
18:00+7ne8157896 0.5 1022792
21:00+6ne7136426 0.6 1024559